Change the Weather History Date:

Tuesday, October 30, 2012

  Actual Average (KCHO) Record (KCHO)
Temperature  
Mean Temperature 40 °F 52 °F  
Max Temperature 44 °F 64 °F 84 °F (1984)
Min Temperature 37 °F 40 °F 28 °F (1965)
Degree Days  
Heating Degree Days 24 13  
Month to date heating degree days 277  
Since 1 July heating degree days 335  
Cooling Degree Days 0 0  
Month to date cooling degree days 12  
Year to date cooling degree days 1033  
Moisture  
Dew Point 37 °F    
Average Humidity 84    
Maximum Humidity 93    
Minimum Humidity 71    
Precipitation  
Precipitation 0.34 in 0.10 in 0.27 in (2002)
Month to date precipitation 3.02  
Year to date precipitation 35.64  
Sea Level Pressure  
Sea Level Pressure 29.23 in    
Wind  
Wind Speed 7 mph (SW)    
Max Wind Speed 13 mph    
Max Gust Speed 21 mph    
Visibility 10 miles    
Events      
T = Trace of Precipitation, MM = Missing Value Source: NWS Daily Summary

Daily Weather History Graph

Daily Weather History Graph

Search for Another Location

Airport or City:

Trip Planner

Search our weather history database for the weather conditions in past years. The results will help you decide how hot, cold, wet, or windy it might be!

Date:

Astronomy

Oct. 30, 2012 Rise Set
Actual Time 7:35 AM EDT 6:14 PM EDT
Civil Twilight 7:08 AM EDT 6:41 PM EDT
Nautical Twilight 6:37 AM EDT 7:12 PM EDT
Astronomical Twilight 6:07 AM EDT 7:43 PM EDT
Moon 6:44 PM EDT (10/30) 8:19 AM EDT (10/30)
Length of Visible Light 11h 32m
Length of Day
10h 38m
Full, 99% of the Moon is Illuminated
Oct 30
Full
Nov 6
Last Quarter
Nov 13
New
Nov 20
First Quarter
Nov 28
Full

Hourly Weather History & Observations

Time (EDT) Temp. Windchill Dew Point Humidity Pressure Visibility Wind Dir Wind Speed Gust Speed Precip Events Conditions
12:15 AM 42.8 °F 37.0 °F 39.2 °F 87% 28.91 in 10.0 mi WSW 10.4 mph 19.6 mph 0.02 in   Overcast
12:35 AM 44.6 °F 38.4 °F 39.2 °F 81% 28.91 in 10.0 mi WSW 12.7 mph 20.7 mph 0.03 in   Overcast
12:55 AM 44.6 °F 38.8 °F 39.2 °F 81% 28.92 in 10.0 mi WSW 11.5 mph 18.4 mph 0.03 in   Overcast
1:15 AM 44.6 °F 39.7 °F 39.2 °F 81% 28.92 in 10.0 mi WSW 9.2 mph - N/A   Overcast
1:35 AM 44.6 °F 39.7 °F 39.2 °F 81% 28.93 in 10.0 mi WSW 9.2 mph 19.6 mph N/A   Overcast
1:55 AM 44.6 °F 40.7 °F 39.2 °F 81% 28.93 in 10.0 mi WSW 6.9 mph 17.3 mph 0.01 in   Overcast
2:15 AM 42.8 °F 37.5 °F 39.2 °F 87% 28.93 in 10.0 mi SW 9.2 mph - N/A   Overcast
2:35 AM 42.8 °F 38.0 °F 39.2 °F 87% 28.94 in 10.0 mi SW 8.1 mph - 0.01 in   Overcast
2:55 AM 42.8 °F 38.0 °F 39.2 °F 87% 28.95 in 10.0 mi SW 8.1 mph - 0.03 in   Overcast
3:35 AM 42.8 °F 38.6 °F 39.2 °F 87% 28.95 in 10.0 mi SW 6.9 mph - 0.02 in   Overcast
3:55 AM 42.8 °F 38.0 °F 39.2 °F 87% 28.96 in 10.0 mi SW 8.1 mph - 0.03 in   Overcast
4:15 AM 42.8 °F 38.0 °F 39.2 °F 87% 28.97 in 10.0 mi SW 8.1 mph - N/A   Overcast
4:55 AM 42.8 °F 38.0 °F 37.4 °F 81% 29.00 in 10.0 mi SW 8.1 mph - 0.03 in   Overcast
5:15 AM 41.0 °F 35.2 °F 37.4 °F 87% 29.01 in 10.0 mi SW 9.2 mph 17.3 mph 0.01 in   Overcast
5:35 AM 41.0 °F 35.2 °F 37.4 °F 87% 29.02 in 10.0 mi WSW 9.2 mph - 0.03 in   Overcast
5:55 AM 41.0 °F 36.4 °F 37.4 °F 87% 29.04 in 10.0 mi SW 6.9 mph - 0.04 in   Overcast
6:15 AM 41.0 °F 36.4 °F 37.4 °F 87% 29.06 in 10.0 mi SW 6.9 mph - 0.02 in   Overcast
6:35 AM 39.2 °F 35.0 °F 37.4 °F 93% 29.07 in 10.0 mi SW 5.8 mph - 0.04 in   Overcast
6:55 AM 39.2 °F 33.6 °F 37.4 °F 93% 29.09 in 10.0 mi SSW 8.1 mph - 0.07 in   Overcast
7:15 AM 39.2 °F 32.0 °F 35.6 °F 87% 29.10 in 10.0 mi SW 11.5 mph 19.6 mph 0.03 in   Overcast
7:35 AM 37.4 °F 32.1 °F 35.6 °F 93% 29.11 in 10.0 mi SW 6.9 mph 16.1 mph 0.05 in   Overcast
7:55 AM 37.4 °F 30.8 °F 35.6 °F 93% 29.13 in 10.0 mi SW 9.2 mph - 0.06 in   Overcast
8:15 AM 37.4 °F 31.4 °F 35.6 °F 93% 29.14 in 10.0 mi SW 8.1 mph - 0.01 in   Overcast
8:35 AM 39.2 °F 34.2 °F 35.6 °F 87% 29.15 in 10.0 mi SW 6.9 mph - 0.01 in   Overcast
8:55 AM 39.2 °F 35.0 °F 35.6 °F 87% 29.17 in 10.0 mi SSW 5.8 mph 9.2 mph 0.02 in   Overcast
9:35 AM 39.2 °F 35.9 °F 35.6 °F 87% 29.19 in 10.0 mi South 4.6 mph - N/A   Overcast
9:55 AM 39.2 °F 33.6 °F 35.6 °F 87% 29.20 in 10.0 mi SSW 8.1 mph - N/A   Overcast
10:15 AM 39.2 °F 33.0 °F 35.6 °F 87% 29.21 in 10.0 mi SSW 9.2 mph - N/A   Overcast
10:35 AM 39.2 °F 34.2 °F 35.6 °F 87% 29.22 in 10.0 mi SSW 6.9 mph 16.1 mph 0.01 in   Overcast
10:55 AM 39.2 °F 33.6 °F 37.4 °F 93% 29.23 in 10.0 mi SSW 8.1 mph - 0.01 in   Overcast
11:15 AM 41.0 °F 36.4 °F 37.4 °F 87% 29.24 in 10.0 mi South 6.9 mph - N/A   Overcast
11:35 AM 41.0 °F 36.4 °F 37.4 °F 87% 29.25 in 10.0 mi SSW 6.9 mph - N/A   Overcast
11:55 AM 41.0 °F 35.8 °F 37.4 °F 87% 29.26 in 10.0 mi SSW 8.1 mph - N/A   Overcast
12:15 PM 41.0 °F 35.8 °F 37.4 °F 87% 29.27 in 10.0 mi SSW 8.1 mph - N/A   Overcast
12:35 PM 41.0 °F 35.8 °F 37.4 °F 87% 29.27 in 10.0 mi SW 8.1 mph - N/A   Overcast
12:55 PM 41.0 °F 35.8 °F 37.4 °F 87% 29.28 in 10.0 mi SSW 8.1 mph 17.3 mph N/A   Overcast
1:15 PM 41.0 °F 35.2 °F 37.4 °F 87% 29.28 in 10.0 mi SSW 9.2 mph 17.3 mph 0.01 in   Overcast
1:35 PM 41.0 °F 38.0 °F 37.4 °F 87% 29.29 in 10.0 mi SW 4.6 mph 17.3 mph 0.01 in   Overcast
1:55 PM 42.8 °F 37.5 °F 37.4 °F 81% 29.30 in 10.0 mi SW 9.2 mph - 0.01 in   Overcast
2:15 PM 42.8 °F 38.0 °F 37.4 °F 81% 29.30 in 10.0 mi SW 8.1 mph - N/A   Overcast
2:35 PM 42.8 °F 41.1 °F 37.4 °F 81% 29.31 in 10.0 mi SW 3.5 mph - N/A   Overcast
2:55 PM 42.8 °F 39.3 °F 35.6 °F 76% 29.31 in 10.0 mi SW 5.8 mph - N/A   Overcast
3:15 PM 42.8 °F 39.3 °F 35.6 °F 76% 29.32 in 10.0 mi SW 5.8 mph - N/A   Overcast
3:35 PM 42.8 °F 41.1 °F 35.6 °F 76% 29.33 in 10.0 mi WSW 3.5 mph - N/A   Overcast
3:55 PM 42.8 °F 40.1 °F 35.6 °F 76% 29.34 in 10.0 mi SW 4.6 mph - N/A   Overcast
4:15 PM 44.6 °F 42.2 °F 35.6 °F 71% 29.35 in 10.0 mi SW 4.6 mph - N/A   Overcast
4:35 PM 44.6 °F 42.2 °F 35.6 °F 71% 29.35 in 10.0 mi WSW 4.6 mph - N/A   Overcast
4:55 PM 44.6 °F 40.7 °F 35.6 °F 71% 29.36 in 10.0 mi West 6.9 mph - N/A   Overcast
5:15 PM 42.8 °F 40.1 °F 35.6 °F 76% 29.37 in 10.0 mi WSW 4.6 mph - N/A   Overcast
5:35 PM 42.8 °F - 35.6 °F 76% 29.38 in 10.0 mi Calm Calm - N/A   Overcast
5:55 PM 42.8 °F 39.3 °F 37.4 °F 81% 29.39 in 10.0 mi West 5.8 mph - N/A   Overcast
6:15 PM 42.8 °F 39.3 °F 35.6 °F 76% 29.40 in 10.0 mi WSW 5.8 mph - N/A   Overcast
6:35 PM 41.0 °F 39.0 °F 37.4 °F 87% 29.41 in 10.0 mi WSW 3.5 mph - N/A   Overcast
6:55 PM 41.0 °F 38.0 °F 37.4 °F 87% 29.41 in 10.0 mi WSW 4.6 mph - N/A   Overcast
7:15 PM 41.0 °F 38.0 °F 35.6 °F 81% 29.42 in 10.0 mi WSW 4.6 mph - N/A   Overcast
7:35 PM 41.0 °F 39.0 °F 35.6 °F 81% 29.43 in 10.0 mi WSW 3.5 mph - N/A   Overcast
7:55 PM 41.0 °F - 35.6 °F 81% 29.43 in 10.0 mi Calm Calm - N/A   Overcast
8:15 PM 41.0 °F 39.0 °F 35.6 °F 81% 29.44 in 10.0 mi WSW 3.5 mph - N/A   Overcast
8:35 PM 41.0 °F - 35.6 °F 81% 29.44 in 10.0 mi Calm Calm - N/A   Overcast
8:55 PM 41.0 °F - 35.6 °F 81% 29.45 in 10.0 mi Calm Calm - N/A   Overcast
9:15 PM 41.0 °F - 35.6 °F 81% 29.46 in 10.0 mi Calm Calm - N/A   Overcast
9:35 PM 41.0 °F - 35.6 °F 81% 29.46 in 10.0 mi Calm Calm - N/A   Overcast
9:55 PM 41.0 °F - 35.6 °F 81% 29.47 in 10.0 mi Calm Calm - N/A   Overcast
10:15 PM 41.0 °F - 35.6 °F 81% 29.47 in 10.0 mi Calm Calm - N/A   Overcast
10:35 PM 41.0 °F - 35.6 °F 81% 29.47 in 10.0 mi Calm Calm - N/A   Overcast
10:55 PM 41.0 °F - 35.6 °F 81% 29.47 in 10.0 mi Calm Calm - N/A   Overcast
11:15 PM 41.0 °F - 35.6 °F 81% 29.47 in 10.0 mi Calm Calm - N/A   Overcast
11:35 PM 41.0 °F - 35.6 °F 81% 29.47 in 10.0 mi Calm Calm - N/A   Overcast
11:55 PM 39.2 °F 37.0 °F 35.6 °F 87% 29.46 in 10.0 mi SSE 3.5 mph - N/A   Overcast